Wetbulb
68.04 67.22 65.47 62.28 54.93 55.42 54.54 53.82 56.36 55.46 56.32 59.97 61.02 65.84 66.49 66.57 67.03 62.08 77.72 78.84 78.82 78.67 79.45 78.22 78.14 77.93 77.72 77.63 77.88 78.06 78.09 77.61 77.58 77.43 77.08 76.65 77.03 77.33 76.32 76.87 76.75 76.96 77.12 77.18 76.75 76.22 75.67 75.12 74.22
65.84 63.07 62.72 59.27 52.85 52.17 53.30 55.16 54.11 55.52 57.37 59.59 60.34 63.99 66.27 61.87 68.97 73.08 75.09 79.05 79.42 79.55 79.85 79.03 77.91 77.93 77.39 77.22 77.56 77.68 77.96 77.83 77.68 77.48 77.18 77.05 77.58 76.98 76.75 76.97 76.57 76.96 77.02 76.92 76.99 76.08 75.18 74.40 73.02
64.39 63.29 58.83 56.12 54.47 52.20 51.90 54.06 54.60 56.67 58.24 58.23 61.01 65.99 62.36 60.72 69.46 74.49 78.00 78.82 79.84 79.88 79.79 79.26 77.98 77.91 77.32 76.58 76.70 77.23 77.63 77.70 77.65 77.45 77.25 77.35 77.33 77.33 77.55 77.13 76.69 76.78 76.83 76.50 76.59 76.07 74.95 73.95 72.76
61.06 60.23 58.16 53.12 53.07 53.89 53.67 54.45 55.12 56.48 58.46 59.44 61.40 59.57 61.34 70.62 72.05 76.18 77.90 78.22 79.09 79.81 80.59 78.00 77.91 77.56 77.15 76.51 76.26 76.60 76.97 77.33 77.35 77.28 77.43 77.30 77.40 77.45 77.50 77.00 76.67 76.47 76.46 76.57 76.50 76.05 75.19 73.97 72.51
59.72 58.44 53.25 52.76 53.52 52.86 54.21 54.45 55.04 55.18 56.40 57.89 60.41 58.67 58.17 67.47 74.54 76.14 76.29 76.55 77.12 77.94 80.40 79.25 77.43 77.10 76.87 76.62 76.14 76.09 76.22 76.62 77.07 77.07 77.05 77.05 77.30 77.24 77.07 76.70 76.42 75.82 75.94 76.42 76.30 75.82 75.23 74.06 72.99
55.39 56.30 51.72 50.49 52.45 52.51 53.84 54.76 54.62 54.38 55.46 56.27 57.61 58.07 57.85 61.61 64.57 72.26 74.87 75.35 75.35 76.97 78.54 79.26 77.54 77.13 77.00 76.67 76.35 76.30 76.24 76.19 76.32 76.85 76.87 76.80 76.97 76.84 76.65 76.30 75.99 75.88 75.92 76.06 76.13 75.74 75.14 74.16 73.51
53.48 53.92 51.20 51.59 51.52 50.90 52.22 55.05 53.37 53.65 53.96 54.24 57.66 56.81 58.89 59.56 60.86 62.55 70.84 73.93 74.59 75.52 76.91 79.23 79.08 78.12 77.35 76.93 76.62 76.37 76.24 76.26 76.29 76.38 76.58 76.58 76.31 76.31 76.24 76.29 76.19 76.35 76.52 76.65 76.32 75.79 75.48 74.53 73.46
55.21 53.78 50.57 51.21 50.23 50.34 53.11 53.69 54.26 53.64 53.63 56.84 57.79 55.04 55.52 58.61 60.75 61.94 62.57 65.64 70.41 71.80 74.16 75.53 78.65 79.80 79.04 77.84 76.95 76.64 76.26 76.31 76.25 76.01 75.96 76.21 75.81 75.97 75.74 76.02 76.03 76.22 76.44 76.62 76.55 76.07 75.39 74.44 73.43
56.04 50.55 49.51 49.56 49.36 51.48 53.46 52.36 54.62 55.42 54.60 54.83 56.12 56.19 57.19 59.05 60.66 61.31 61.88 62.20 62.47 65.54 70.35 72.49 74.71 77.59 78.33 77.66 78.39 76.67 76.29 75.97 75.78 75.64 75.49 75.29 74.09 74.26 74.14 74.08 74.88 75.91 76.26 76.26 76.24 75.79 75.24 74.49 73.94
52.65 51.10 50.73 52.55 52.64 51.68 52.47 52.40 52.87 52.63 53.02 53.55 54.32 56.52 57.56 58.49 59.19 59.08 59.42 59.71 60.75 61.41 62.30 64.80 75.62 75.27 76.33 76.09 78.45 79.37 78.94 77.70 76.89 76.05 75.88 75.18 74.63 74.76 74.46 75.04 74.07 75.77 75.91 75.96 75.93 75.75 75.28 74.42 72.56
52.94 51.75 52.03 51.62 53.21 53.11 51.96 51.88 53.01 51.99 51.46 53.47 52.67 54.48 56.34 56.98 58.38 58.25 58.83 59.71 60.09 61.24 61.72 62.36 65.87 74.74 76.06 74.67 77.08 76.39 77.03 78.02 77.60 77.89 77.25 77.75 76.03 75.24 74.65 73.98 74.45 74.69 75.06 74.05 74.28 74.55 74.06 72.55 72.24
50.47 52.25 52.37 52.63 52.44 51.63 51.04 52.53 51.16 51.58 52.47 54.21 54.42 55.41 55.85 55.86 56.52 57.44 57.93 58.91 59.93 60.92 62.22 63.26 64.07 66.40 74.26 74.38 72.02 74.17 73.84 75.93 76.47 77.05 77.86 76.59 76.20 75.97 75.60 74.51 74.25 74.73 74.48 74.17 73.38 72.28 74.23 72.43 71.96
51.38 51.38 51.67 51.94 51.82 51.96 52.01 51.36 51.06 51.43 53.56 55.07 55.46 56.00 55.76 55.98 56.81 58.10 59.48 60.38 61.55 62.00 63.41 64.63 66.60 67.59 68.62 71.69 71.10 71.46 72.14 72.86 75.48 75.32 75.91 76.47 76.57 76.98 76.91 75.89 75.13 74.17 73.80 73.45 73.00 72.56 72.52 71.87 71.58
51.80 51.46 51.58 51.61 51.87 52.37 50.77 51.44 51.79 52.66 54.21 54.52 54.95 55.37 55.99 56.22 57.81 59.33 60.52 62.09 63.24 64.00 64.39 65.58 67.15 72.16 71.27 72.44 74.09 71.82 73.20 73.13 73.78 73.84 74.48 76.58 76.40 77.70 75.98 75.82 74.90 74.56 74.01 73.49 71.91 72.92 72.17 71.19 70.92
51.60 49.87 50.93 51.43 51.43 50.69 51.92 49.43 49.95 53.43 53.99 53.86 54.68 55.34 55.79 57.05 59.22 60.49 62.28 62.62 63.72 64.86 66.47 67.82 68.68 69.72 71.90 71.43 72.55 71.76 69.86 69.72 71.80 71.24 76.50 75.89 76.88 78.14 77.10 75.57 74.39 74.32 74.58 74.42 74.44 72.28 73.12 71.94 71.34
50.09 50.18 47.69 51.63 51.64 51.37 50.83 46.60 51.51 53.68 53.65 53.24 54.08 54.78 56.29 57.97 59.45 61.53 62.36 63.28 64.63 65.77 66.67 67.97 68.22 68.95 71.00 72.30 70.87 70.24 69.55 69.56 69.11 71.24 71.41 76.82 76.77 76.51 76.65 75.38 74.17 75.26 74.93 74.30 72.92 71.79 71.25 71.08 71.36
50.39 46.48 47.02 48.11 51.87 50.57 50.47 48.30 52.08 53.98 53.94 53.49 53.98 54.86 56.71 57.56 59.50 61.65 62.37 63.11 64.35 65.77 66.86 67.41 68.95 68.75 69.94 71.82 70.83 71.16 73.70 72.19 69.74 70.60 70.86 74.27 75.40 74.51 75.33 73.71 74.39 75.76 73.79 73.90 73.00 73.24 72.65 70.58 69.10
46.23 45.90 47.36 47.36 50.37 51.05 49.74 49.44 52.18 53.89 53.95 53.68 53.30 55.41 56.48 57.34 58.65 60.88 62.09 63.45 64.52 65.45 66.61 67.69 68.28 69.35 69.99 69.85 71.01 68.36 68.31 70.97 71.19 70.44 70.19 74.46 73.51 73.72 75.61 73.16 74.75 74.92 72.68 73.05 72.22 73.83 72.73 71.67 70.93
48.51 47.62 47.32 49.63 51.28 49.39 49.67 49.70 51.55 53.68 54.03 53.43 53.26 55.53 56.12 56.67 58.76 60.64 61.75 63.10 63.70 64.92 65.49 66.34 67.07 70.12 69.05 67.88 66.45 65.89 64.00 66.19 68.62 71.15 74.77 75.44 72.92 73.73 76.44 72.48 73.83 74.68 72.70 73.05 74.42 72.30 71.34 70.98 71.40
48.91 48.01 47.85 49.83 50.92 49.77 49.27 49.08 51.94 53.17 52.49 52.44 53.99 54.45 55.29 56.59 58.36 59.65 61.03 62.14 62.98 63.51 64.51 65.23 66.05 68.48 68.99 67.82 68.16 67.69 69.12 65.72 67.17 69.90 73.44 74.50 73.40 74.32 74.15 75.02 72.45 73.36 68.80 71.74 73.79 73.33 68.95 69.54 70.53
48.99 47.49 47.61 46.20 48.77 50.40 49.58 48.11 49.67 51.50 51.68 53.49 54.85 55.64 56.34 56.44 57.50 58.85 59.87 61.17 62.15 62.58 63.71 64.02 65.16 67.15 70.25 70.30 67.80 68.09 69.41 70.85 66.55 67.50 70.60 72.00 73.52 73.49 75.34 74.77 74.07 72.82 72.80 67.56 71.19 71.25 71.65 68.12 70.60
45.56 49.38 48.16 47.01 46.33 43.09 49.62 40.97 47.88 50.36 50.49 52.58 53.62 54.73 55.46 56.49 57.03 57.50 58.32 59.58 60.62 61.33 62.99 64.17 64.54 65.74 66.81 70.92 69.26 69.77 66.77 67.22 66.09 66.87 68.09 69.15 73.91 73.91 74.67 75.08 73.69 74.73 71.13 72.77 70.88 70.68 70.45 69.96 67.48
46.70 49.72 48.16 48.01 46.77 46.77 46.17 43.85 46.42 48.55 47.73 49.94 52.76 52.98 54.07 56.68 56.00 56.27 56.77 58.25 59.66 60.88 61.71 63.30 64.22 64.48 66.11 67.74 70.58 67.64 69.90 68.00 68.30 67.82 72.52 74.30 73.27 73.02 71.09 72.25 72.82 72.93 71.17 73.03 71.73 72.08 71.31 69.90 70.25
50.59 48.94 48.98 48.89 47.14 41.28 45.38 43.84 43.97 46.14 48.11 49.53 51.85 52.67 53.46 55.72 56.38 56.36 57.61 58.67 58.90 60.23 60.80 62.34 62.87 63.21 64.10 65.45 64.44 70.05 70.08 70.97 69.91 69.75 67.55 66.36 67.08 70.10 71.95 71.60 72.23 72.01 73.08 70.19 71.33 71.97 71.27 70.57 71.11
49.71 46.81 40.74 39.24 39.64 39.21 45.57 42.69 44.55 49.12 50.27 50.43 50.52 51.78 53.68 55.37 55.44 55.51 55.65 56.13 57.50 58.13 60.13 60.61 61.46 61.84 62.48 63.18 62.45 65.86 68.32 69.99 70.57 70.50 67.31 68.79 65.12 65.16 70.57 61.50 63.16 62.81 70.46 71.03 71.27 70.16 70.46 70.23 69.84
46.61 46.63 40.32 34.45 36.04 38.21 44.51 40.45 44.52 50.41 51.48 51.84 52.85 53.74 55.07 55.27 54.48 54.89 55.71 56.47 58.02 58.24 60.24 59.64 61.07 61.19 61.34 61.72 62.36 65.57 67.44 69.21 68.92 69.87 68.88 68.09 68.64 69.74 71.95 70.91 69.96 69.55 69.27 69.96 70.73 68.07 69.02 69.65 68.48
46.17 43.93 48.25 42.09 42.73 39.52 42.41 45.21 48.18 49.53 49.32 50.37 51.45 51.53 52.60 53.89 53.98 54.49 55.32 55.52 57.00 57.55 57.46 59.15 60.28 60.46 60.73 60.28 60.22 61.73 64.81 66.54 67.53 68.47 69.03 66.55 67.89 66.82 67.41 68.28 68.09 67.44 67.39 66.95 66.73 66.10 66.49 68.21 68.20
48.20 49.25 41.56 42.78 34.06 32.59 38.88 40.14 41.24 44.31 45.77 49.38 50.14 50.94 51.61 53.05 53.69 54.62 54.70 55.68 56.45 57.08 55.80 59.14 59.82 59.51 60.06 59.61 58.90 57.48 57.50 63.10 65.12 65.78 63.08 65.78 66.70 66.71 67.16 66.89 66.09 64.53 63.43 61.70 61.59 61.87 60.87 61.23 61.89
45.56 44.44 45.16 44.91 42.08 35.06 33.31 38.19 47.37 46.20 48.06 49.08 49.99 50.52 48.42 50.26 52.39 54.47 54.32 55.31 56.26 56.05 56.09 57.23 57.49 58.02 58.37 59.05 58.72 57.89 56.62 58.54 62.41 65.04 64.04 63.45 64.37 63.45 62.72 62.18 60.62 59.55 59.09 57.99 57.52 57.21 56.72 56.15 55.59
46.03 44.18 44.71 40.17 36.80 39.81 39.52 37.72 48.54 48.23 49.28 49.56 48.02 49.95 49.45 50.79 52.91 52.15 53.76 54.55 54.74 53.95 55.23 55.48 57.42 57.25 57.58 58.33 57.93 56.21 55.87 57.90 62.24 63.30 62.87 62.56 62.20 60.85 59.33 58.65 57.53 56.22 55.29 54.50 54.27 52.60 52.00 51.53 50.43
MSLP
1009.36 1007.99 1006.77 1005.52 1003.99 1000.94 998.41 999.02 999.61 999.31 999.20 1000.17 1000.13 999.57 999.29 1001.20 999.71 1002.55 1001.11 1003.53 1003.10 1004.10 1006.20 1007.42 1008.09 1008.45 1008.56 1008.78 1008.94 1009.17 1009.48 1009.72 1009.99 1010.22 1010.39 1010.53 1010.76 1010.93 1011.24 1011.50 1011.60 1011.65 1011.72 1011.77 1011.85 1011.98 1012.09 1012.24 1012.40
1008.36 1006.91 1006.15 1004.10 1002.01 999.24 998.40 999.82 999.92 1000.41 1000.70 1000.62 1000.26 999.98 999.48 1001.19 1002.29 1002.50 1003.48 1004.16 1003.80 1004.70 1006.31 1007.02 1008.36 1008.60 1008.75 1009.01 1009.20 1009.32 1009.54 1009.81 1010.06 1010.20 1010.39 1010.63 1010.76 1011.01 1011.19 1011.39 1011.67 1011.76 1011.76 1011.85 1011.96 1012.07 1012.18 1012.30 1012.45
1008.78 1007.00 1005.25 1002.39 1000.71 999.15 999.22 1000.54 1001.13 1000.82 1001.14 1000.89 1000.46 1001.18 1002.03 1003.01 1002.68 1002.30 1003.51 1003.74 1004.58 1005.48 1006.32 1007.56 1008.56 1008.80 1008.94 1009.24 1009.44 1009.66 1009.98 1010.20 1010.24 1010.41 1010.52 1010.64 1010.80 1010.98 1011.20 1011.39 1011.60 1011.64 1011.77 1011.87 1012.03 1012.13 1012.24 1012.36 1012.47
1006.80 1005.90 1004.46 1002.29 1000.31 1000.51 1000.81 1001.55 1001.86 1001.24 1001.37 1001.58 1001.45 1002.12 1003.83 1004.21 1003.87 1003.70 1004.27 1004.38 1005.00 1005.59 1006.06 1008.15 1008.80 1009.04 1009.17 1009.30 1009.57 1009.80 1009.99 1010.22 1010.45 1010.60 1010.69 1010.79 1010.94 1011.06 1011.18 1011.36 1011.62 1011.72 1011.83 1011.91 1012.00 1012.19 1012.35 1012.45 1012.58
1006.56 1004.45 1002.52 1001.92 1000.41 1001.73 1002.28 1002.61 1002.41 1001.78 1001.95 1002.05 1001.94 1002.50 1004.10 1004.61 1004.32 1004.15 1004.29 1004.13 1004.18 1005.24 1006.26 1007.99 1008.81 1009.10 1009.29 1009.44 1009.68 1009.92 1010.17 1010.36 1010.42 1010.53 1010.74 1010.89 1010.96 1011.08 1011.24 1011.35 1011.52 1011.67 1011.78 1011.87 1011.97 1012.12 1012.26 1012.41 1012.52
1004.71 1003.23 1001.65 1000.37 1000.55 1002.37 1002.98 1003.27 1002.88 1002.57 1002.77 1003.14 1002.83 1003.15 1004.22 1004.95 1004.82 1004.12 1003.90 1003.63 1004.25 1004.72 1005.78 1007.75 1008.95 1009.17 1009.41 1009.55 1009.68 1009.86 1010.03 1010.23 1010.38 1010.57 1010.72 1010.88 1011.04 1011.16 1011.19 1011.31 1011.44 1011.53 1011.62 1011.74 1011.90 1012.03 1012.11 1012.20 1012.26
1004.12 1002.19 1001.15 1000.20 1000.79 1002.60 1003.49 1004.06 1003.53 1003.39 1003.49 1003.82 1004.05 1003.16 1003.90 1004.97 1005.57 1004.86 1004.32 1004.02 1004.07 1004.38 1005.08 1005.88 1007.51 1008.58 1009.28 1009.47 1009.58 1009.73 1009.93 1010.13 1010.31 1010.44 1010.59 1010.69 1010.91 1011.13 1011.21 1011.25 1011.34 1011.46 1011.47 1011.61 1011.68 1011.80 1011.99 1012.03 1012.06
1004.10 1002.73 1001.30 1001.10 1001.40 1002.50 1004.10 1004.31 1004.44 1004.25 1004.11 1004.70 1004.72 1003.71 1004.76 1005.84 1005.88 1005.08 1004.63 1004.39 1004.14 1004.21 1004.54 1004.87 1005.49 1006.98 1007.80 1008.43 1009.13 1009.53 1009.87 1010.05 1010.21 1010.34 1010.47 1010.62 1010.79 1010.84 1010.95 1011.12 1011.21 1011.28 1011.41 1011.55 1011.63 1011.69 1011.75 1011.84 1011.87
1004.38 1002.82 1001.24 1001.68 1002.51 1002.88 1004.42 1004.50 1004.73 1005.36 1004.71 1005.05 1005.31 1005.55 1006.04 1006.04 1005.76 1005.43 1004.99 1004.56 1004.05 1004.43 1004.60 1005.27 1005.13 1005.13 1006.04 1005.74 1008.05 1009.15 1009.66 1010.04 1010.26 1010.32 1010.41 1010.54 1010.15 1009.88 1010.26 1010.37 1010.56 1010.93 1011.09 1011.25 1011.48 1011.62 1011.64 1011.62 1011.59
1003.95 1002.33 1002.18 1003.60 1004.30 1004.31 1004.98 1005.29 1005.19 1005.18 1004.87 1004.98 1005.61 1005.81 1006.06 1005.99 1005.90 1005.64 1005.11 1004.70 1004.50 1004.54 1004.66 1004.53 1005.35 1005.87 1005.74 1006.03 1007.43 1007.68 1007.96 1008.79 1009.31 1009.43 1009.45 1009.88 1009.45 1009.18 1008.87 1009.11 1009.91 1010.44 1010.82 1011.09 1011.22 1011.30 1011.35 1011.44 1010.52
1003.85 1003.04 1004.50 1005.44 1005.92 1005.91 1005.57 1005.54 1005.89 1005.34 1004.95 1005.33 1006.29 1006.22 1006.18 1006.06 1005.87 1005.88 1005.64 1005.36 1005.37 1005.41 1005.48 1005.44 1005.37 1005.90 1006.60 1005.95 1005.67 1005.81 1006.16 1006.94 1008.05 1008.30 1008.74 1008.73 1008.68 1008.77 1008.63 1008.81 1009.33 1009.91 1010.33 1010.15 1010.24 1010.44 1010.56 1010.02 1009.58
1004.80 1005.38 1005.58 1005.94 1006.71 1006.36 1005.87 1006.13 1006.02 1006.00 1005.80 1006.48 1006.69 1006.54 1006.46 1006.01 1005.83 1005.94 1005.98 1006.08 1006.20 1006.06 1006.32 1006.47 1006.29 1006.32 1006.39 1006.55 1006.15 1005.66 1006.03 1005.63 1006.20 1006.74 1007.44 1008.26 1008.67 1008.41 1008.34 1008.28 1008.39 1008.36 1008.28 1008.80 1008.95 1008.51 1008.53 1008.69 1008.67
1005.21 1005.90 1006.31 1006.66 1006.70 1006.60 1006.78 1006.38 1006.14 1005.94 1006.26 1006.93 1006.78 1006.65 1006.38 1006.26 1006.29 1006.30 1006.53 1006.83 1006.89 1006.99 1007.02 1007.21 1007.33 1007.29 1007.25 1007.01 1006.45 1006.35 1006.07 1005.65 1005.27 1005.96 1006.75 1007.23 1007.93 1007.99 1008.16 1008.27 1008.26 1008.06 1007.78 1007.70 1007.90 1007.96 1007.88 1007.78 1008.05
1006.12 1006.14 1006.17 1006.50 1006.34 1006.66 1006.83 1006.16 1005.95 1005.70 1006.36 1006.63 1006.59 1006.62 1006.55 1006.60 1006.69 1006.93 1007.00 1007.42 1007.74 1007.75 1007.73 1007.66 1007.82 1007.80 1007.65 1007.48 1007.03 1006.56 1006.28 1005.95 1005.74 1005.69 1006.41 1006.72 1007.65 1008.00 1008.19 1008.28 1008.32 1008.26 1008.20 1007.96 1008.13 1007.60 1007.56 1007.60 1007.52
1006.26 1005.97 1006.05 1006.12 1006.32 1006.50 1006.89 1005.52 1004.50 1005.41 1006.17 1006.18 1006.20 1006.52 1006.69 1006.71 1007.11 1007.29 1007.88 1008.01 1007.95 1008.08 1008.06 1008.20 1008.03 1007.58 1007.54 1007.51 1007.14 1006.54 1005.96 1005.45 1005.14 1005.44 1005.72 1006.48 1007.43 1007.72 1007.96 1008.28 1008.19 1008.03 1008.24 1008.57 1008.35 1008.08 1007.85 1007.53 1007.32
1005.75 1005.33 1004.18 1004.75 1005.66 1006.10 1006.75 1004.82 1004.30 1005.04 1005.59 1005.71 1005.79 1006.55 1006.85 1006.93 1007.42 1008.07 1008.36 1008.36 1008.53 1008.59 1008.59 1008.52 1008.24 1007.92 1007.56 1007.25 1007.06 1006.28 1005.53 1005.17 1004.93 1004.61 1004.90 1005.50 1007.07 1007.53 1007.64 1007.96 1008.12 1007.57 1007.97 1008.21 1008.26 1008.44 1008.51 1007.80 1007.10
1004.67 1003.90 1003.82 1004.19 1004.95 1005.74 1005.73 1004.79 1004.33 1004.62 1004.95 1005.28 1005.70 1006.35 1006.85 1007.24 1007.73 1008.54 1008.65 1008.66 1008.79 1008.77 1008.81 1008.60 1008.36 1007.90 1007.62 1007.28 1006.77 1006.20 1005.47 1005.10 1004.90 1004.68 1004.60 1004.90 1005.53 1006.44 1006.97 1007.35 1007.46 1007.37 1007.58 1007.81 1007.84 1007.95 1007.76 1007.93 1007.77
1004.67 1004.80 1004.73 1004.59 1004.70 1005.33 1005.37 1004.80 1004.35 1004.46 1004.53 1004.84 1005.51 1006.18 1006.99 1007.49 1007.90 1008.63 1008.80 1009.00 1009.03 1009.03 1009.10 1008.92 1008.53 1008.14 1007.78 1007.28 1006.66 1005.99 1005.01 1004.60 1004.71 1004.41 1004.51 1004.39 1005.03 1005.56 1006.37 1006.60 1007.33 1007.55 1007.14 1007.62 1007.15 1007.37 1007.38 1007.63 1007.55
1006.48 1006.00 1005.40 1005.03 1005.37 1006.03 1005.40 1004.93 1004.43 1004.22 1004.36 1004.58 1005.34 1006.31 1007.08 1007.67 1008.12 1008.53 1008.78 1009.03 1009.21 1009.19 1009.13 1008.92 1008.67 1008.29 1007.76 1006.96 1006.07 1005.04 1004.23 1003.90 1004.01 1004.01 1004.16 1004.41 1004.76 1005.26 1005.73 1006.03 1006.51 1006.76 1006.40 1006.30 1006.60 1006.60 1007.06 1007.12 1007.09
1006.77 1006.08 1005.40 1005.53 1005.58 1006.04 1005.40 1004.48 1003.84 1003.27 1003.91 1005.27 1005.96 1006.73 1007.25 1007.69 1008.12 1008.47 1008.65 1008.77 1008.96 1009.07 1009.15 1009.04 1008.85 1008.34 1007.72 1006.79 1006.15 1005.38 1004.01 1002.91 1002.95 1003.17 1003.24 1003.65 1004.34 1005.05 1005.43 1005.70 1005.65 1005.66 1005.59 1005.76 1005.74 1005.86 1006.14 1006.26 1006.42
1006.69 1006.45 1006.45 1006.77 1006.54 1006.08 1004.83 1003.65 1003.20 1003.53 1004.83 1005.76 1006.67 1007.17 1007.31 1007.66 1008.16 1008.35 1008.53 1008.57 1008.71 1008.60 1008.75 1008.94 1008.97 1008.53 1007.57 1006.95 1006.05 1005.24 1004.49 1003.47 1002.85 1002.44 1002.80 1004.28 1003.57 1004.63 1004.95 1005.10 1005.41 1005.48 1005.51 1005.26 1005.26 1005.18 1005.60 1005.97 1005.96
1007.37 1007.41 1007.83 1007.34 1006.77 1005.44 1005.50 1003.27 1003.15 1003.01 1004.03 1005.09 1006.11 1006.62 1007.05 1007.70 1008.28 1008.38 1008.40 1008.34 1008.45 1008.32 1008.44 1008.63 1008.83 1008.70 1007.93 1007.02 1005.85 1005.13 1004.37 1002.96 1002.20 1002.00 1001.85 1002.42 1002.67 1003.05 1004.15 1004.55 1004.70 1004.82 1005.08 1005.19 1005.30 1005.01 1005.17 1005.52 1005.52
1008.30 1008.43 1008.32 1007.60 1006.53 1005.56 1004.29 1003.21 1002.62 1002.89 1003.74 1004.26 1004.99 1005.72 1006.94 1007.58 1008.21 1008.48 1008.59 1008.40 1008.16 1008.10 1008.17 1008.63 1008.50 1008.75 1008.28 1007.49 1006.13 1005.31 1004.23 1003.30 1002.51 1002.03 1001.97 1001.09 1002.17 1003.46 1003.96 1003.86 1004.16 1004.49 1005.08 1004.82 1005.12 1005.19 1005.03 1005.03 1005.26
1009.26 1008.73 1007.73 1006.48 1005.15 1004.53 1003.58 1004.21 1003.40 1003.31 1003.46 1004.28 1004.85 1005.54 1006.58 1007.28 1007.97 1008.42 1008.59 1008.46 1008.08 1007.94 1007.96 1008.51 1008.66 1008.76 1008.62 1008.01 1007.25 1005.63 1004.87 1004.24 1003.23 1001.81 1002.11 1002.70 1003.07 1003.48 1003.67 1003.58 1004.72 1004.08 1005.60 1005.38 1005.20 1004.89 1004.62 1004.65 1004.53
1008.40 1008.41 1007.24 1006.00 1005.08 1004.22 1003.94 1003.96 1003.52 1003.81 1004.44 1005.29 1006.15 1006.66 1007.06 1007.65 1008.15 1008.54 1008.67 1008.67 1008.58 1008.42 1008.44 1008.79 1009.09 1008.97 1008.80 1008.44 1008.02 1006.76 1005.88 1005.20 1004.37 1003.76 1003.14 1003.11 1002.71 1002.51 1004.03 1004.37 1006.18 1006.05 1005.73 1005.24 1005.03 1004.61 1004.33 1004.16 1003.99
1009.12 1008.99 1008.60 1007.10 1006.71 1005.84 1006.29 1004.65 1003.39 1004.59 1005.35 1006.77 1007.26 1007.71 1008.71 1009.07 1009.22 1009.15 1009.09 1009.41 1009.28 1009.17 1008.98 1009.18 1009.25 1009.38 1009.21 1008.88 1008.44 1007.42 1006.97 1006.24 1005.51 1004.87 1004.47 1004.07 1003.75 1003.58 1004.00 1004.71 1005.19 1005.00 1004.82 1004.75 1004.45 1004.10 1003.75 1003.47 1003.26
1009.07 1009.10 1009.11 1009.24 1009.06 1007.28 1006.03 1005.16 1005.11 1005.95 1007.32 1008.01 1008.53 1009.11 1008.88 1009.69 1009.14 1009.15 1009.82 1010.47 1010.48 1010.35 1010.15 1009.86 1009.54 1009.57 1009.64 1009.46 1009.09 1008.07 1007.93 1007.01 1006.49 1006.19 1005.88 1006.36 1005.72 1005.45 1004.85 1004.46 1004.40 1004.62 1004.68 1004.85 1004.95 1004.49 1004.19 1003.70 1003.57
1009.83 1009.76 1009.83 1010.07 1009.34 1008.09 1007.09 1006.75 1005.65 1006.94 1008.07 1008.16 1008.74 1009.64 1010.82 1009.81 1009.18 1010.00 1010.46 1010.68 1010.73 1010.55 1011.22 1009.92 1009.41 1009.96 1009.84 1009.83 1009.73 1009.42 1009.56 1008.04 1006.94 1006.69 1006.92 1006.49 1006.48 1005.74 1005.46 1005.31 1005.34 1005.62 1005.84 1005.89 1005.60 1005.40 1005.18 1004.74 1004.30
1009.35 1009.25 1009.57 1009.72 1010.27 1009.68 1008.67 1007.42 1007.39 1008.05 1008.59 1009.42 1010.65 1011.84 1012.55 1012.66 1010.31 1010.45 1010.67 1010.60 1010.77 1010.92 1010.52 1010.17 1010.03 1010.01 1010.02 1010.11 1010.13 1010.17 1009.52 1009.34 1007.67 1007.49 1007.33 1007.40 1006.87 1007.12 1007.13 1006.90 1006.52 1006.64 1006.65 1006.58 1006.27 1006.05 1005.82 1005.50 1005.35
1010.72 1010.60 1010.70 1010.97 1011.47 1011.38 1010.58 1008.92 1008.87 1008.64 1009.66 1010.80 1011.87 1012.34 1013.70 1013.55 1013.02 1012.64 1010.65 1010.83 1010.94 1011.07 1010.82 1010.61 1010.72 1010.59 1010.18 1010.10 1010.30 1010.27 1009.93 1009.59 1008.28 1008.05 1007.83 1007.74 1007.55 1007.88 1007.77 1007.44 1007.45 1007.39 1007.31 1007.22 1006.91 1006.76 1006.54 1006.25 1006.12
Wind_Speed
16 14 9 8 9 10 10 9 3 8 4 11 7 12 12 19 20 4 14 13 9 14 13 12 9 9 10 9 10 9 9 9 10 10 11 11 10 11 10 9 9 9 9 8 8 8 7 5 3
16 8 8 9 9 12 4 6 6 7 8 7 1 4 4 16 16 16 12 10 8 12 11 13 10 9 10 10 9 9 10 10 11 11 12 12 11 11 11 11 11 9 9 7 6 6 5 4 3
12 10 11 10 12 11 8 8 7 6 4 6 2 12 11 10 11 9 11 9 10 9 8 14 10 9 9 9 8 8 8 8 10 11 11 12 12 12 10 11 10 10 9 7 6 5 4 3 2
6 6 8 11 17 7 11 9 5 7 5 5 4 14 10 8 3 8 7 4 10 8 10 15 9 8 9 9 9 9 9 10 9 9 10 10 10 10 10 10 9 9 9 8 7 5 4 3 2
10 10 9 15 4 5 3 5 4 4 3 8 6 11 11 10 7 4 3 1 9 11 12 12 9 8 8 9 9 8 8 9 10 11 11 10 10 10 10 10 10 10 9 8 7 6 5 4 4
10 7 13 15 10 5 1 5 6 3 5 7 2 5 7 10 11 10 4 5 4 10 7 13 11 8 8 8 8 8 8 8 9 9 9 9 9 9 10 10 10 10 9 9 8 7 7 7 6
14 10 16 14 13 6 5 6 5 6 6 8 10 8 9 13 11 8 5 4 4 6 11 15 15 13 10 9 9 9 9 9 8 8 8 9 10 9 9 9 10 10 9 9 9 9 9 8 8
10 9 8 7 8 5 7 8 2 4 10 4 6 4 9 9 8 9 6 8 4 2 5 5 11 15 13 14 15 12 10 9 9 9 9 9 9 10 11 9 11 10 9 10 10 10 10 9 9
10 11 11 3 4 9 5 8 5 1 7 3 6 7 7 7 8 7 6 8 6 1 6 6 8 7 6 7 15 12 10 8 8 9 10 9 10 12 13 13 10 14 12 11 11 10 10 10 11
12 10 12 11 8 5 3 8 5 7 4 4 4 4 6 8 7 9 10 9 9 10 9 12 8 6 8 5 15 10 12 10 9 10 11 10 11 10 8 11 19 15 13 11 12 12 12 12 11
3 5 7 4 7 6 3 6 3 7 9 7 9 12 12 11 9 8 11 10 10 11 9 11 9 4 8 13 5 6 7 8 8 12 11 10 8 9 8 7 8 9 14 10 14 13 12 14 12
6 6 2 6 4 4 3 7 8 4 8 6 10 11 12 12 11 9 10 11 12 11 11 10 12 11 4 6 9 6 9 7 7 9 12 7 5 9 8 6 9 9 8 12 11 9 13 15 16
5 3 2 3 4 3 3 10 6 7 2 7 10 12 12 11 9 9 9 9 12 13 12 11 10 10 10 10 9 9 9 10 9 7 9 7 6 4 3 5 7 8 8 8 9 10 10 11 13
3 1 4 3 1 7 8 11 8 12 3 8 9 10 10 8 7 8 6 8 8 11 12 12 12 9 9 9 11 10 8 10 10 6 8 8 8 4 5 4 8 8 8 9 8 8 9 11 12
2 10 8 8 3 10 4 19 19 8 4 10 11 7 7 7 5 6 10 10 11 10 11 12 12 10 8 9 11 10 10 12 11 11 10 6 8 8 8 5 5 7 7 10 10 7 9 10 12
10 9 11 14 7 4 9 12 7 2 8 11 9 8 6 5 6 9 9 9 11 11 12 12 11 13 12 10 10 10 11 10 12 7 8 12 10 12 8 5 6 10 3 6 9 7 8 8 11
11 7 7 6 7 4 10 15 13 7 9 11 7 7 5 5 4 7 10 11 12 12 13 14 14 14 12 12 11 12 11 11 11 8 10 10 11 10 8 6 8 7 7 8 9 8 10 10 9
13 11 11 12 8 11 14 17 14 14 13 13 5 3 3 4 5 6 8 10 12 12 13 14 12 14 14 11 10 11 11 11 11 11 10 9 9 11 9 9 8 9 8 8 10 9 11 12 10
10 12 13 12 10 9 15 18 19 17 15 12 6 2 3 3 4 6 7 8 10 12 14 15 16 14 12 11 11 11 13 10 11 11 11 9 8 8 8 9 10 13 12 11 11 10 10 12 11
11 14 14 11 11 15 19 22 20 19 1 4 3 4 4 5 7 7 7 7 9 11 13 15 16 16 13 10 9 10 11 10 11 11 11 12 11 10 9 9 10 8 10 9 11 11 11 12 10
12 12 13 16 18 19 20 19 16 5 3 4 6 4 5 4 7 8 8 10 11 10 11 13 16 16 14 14 10 9 11 9 11 10 6 11 8 10 10 10 8 9 7 10 9 10 11 11 11
12 10 12 17 18 15 18 19 18 7 10 12 8 7 4 5 8 10 12 12 12 12 12 14 13 16 15 19 11 11 12 11 10 11 9 8 17 11 11 10 10 6 8 9 10 9 9 10 12
13 12 16 18 20 19 20 11 4 5 8 8 12 5 3 2 5 12 14 15 12 11 11 13 13 15 16 19 16 10 11 11 10 8 6 4 2 7 11 10 8 7 8 6 8 10 10 10 10
11 14 18 21 17 12 7 5 12 14 17 10 10 10 6 7 8 11 13 15 16 13 12 12 15 14 16 16 22 13 11 12 12 6 5 6 9 9 12 12 6 3 7 11 9 11 12 11 11
10 15 12 8 10 13 9 15 19 12 7 7 10 12 10 9 12 14 18 19 17 16 14 15 15 14 15 17 16 18 16 12 11 9 6 9 7 7 11 9 7 13 13 10 11 11 12 13 11
17 9 8 18 15 21 19 18 6 6 6 6 10 12 13 10 12 15 15 18 20 19 17 14 13 13 15 16 18 16 17 10 11 13 11 11 11 11 12 9 6 9 11 12 10 11 9 11 11
10 13 9 13 16 17 14 14 21 20 17 9 10 14 7 10 12 12 13 13 14 15 3 10 12 12 13 15 16 17 18 14 11 12 9 7 9 9 12 12 11 12 13 14 13 9 12 12 11
12 11 11 8 12 18 16 22 16 18 17 19 25 25 26 12 16 11 11 9 11 13 3 21 12 13 15 13 14 15 17 16 8 9 11 11 10 12 13 13 14 13 12 12 13 11 9 10 7
10 12 13 12 11 15 18 10 23 24 16 18 20 21 12 22 21 11 7 8 10 12 14 14 15 14 12 13 11 13 13 21 12 8 9 7 10 10 11 10 11 10 11 11 9 7 7 5 5
9 12 10 8 13 13 14 16 20 14 11 8 8 11 10 18 18 21 11 11 9 11 11 13 14 15 15 11 12 9 11 19 14 13 12 13 11 10 10 10 9 9 9 9 8 7 8 8 9
Wind_Direction
273 239 248 262 247 231 244 106 290 24 15 5 348 338 43 40 19 56 55 49 41 98 122 147 130 135 131 134 134 137 136 143 155 156 154 153 160 160 166 166 166 164 160 150 147 148 149 151 149
292 267 244 275 250 244 130 69 32 6 7 330 289 277 33 45 2 79 64 47 49 104 134 140 139 143 137 142 144 147 149 156 162 160 160 162 164 167 171 172 176 175 168 164 160 159 159 158 150
263 261 270 245 246 286 58 66 12 11 23 351 304 38 21 357 15 25 43 50 72 107 145 111 140 145 147 147 144 145 156 163 163 166 167 169 169 172 174 176 183 183 183 180 183 183 181 173 164
231 215 244 260 269 63 3 48 341 8 100 19 349 94 73 35 20 36 60 87 103 126 129 127 132 142 151 154 158 161 166 170 173 174 175 176 176 176 176 180 188 196 199 199 195 199 209 214 230
227 259 243 280 236 73 26 17 326 28 34 8 312 94 69 37 43 76 123 252 120 104 112 139 150 158 162 163 169 172 176 178 178 181 185 185 182 182 187 192 193 199 205 212 210 212 215 220 229
241 259 258 233 168 120 137 332 336 357 46 26 46 119 77 64 17 343 19 106 55 113 119 133 152 167 174 176 175 177 182 189 190 191 193 195 196 197 198 203 204 204 206 213 222 226 222 221 222
252 259 258 286 105 174 27 305 360 329 40 44 335 255 103 39 355 335 348 297 203 127 169 155 170 175 180 186 185 188 191 192 195 197 199 198 201 206 208 209 211 214 213 218 220 223 228 227 232
282 277 275 262 139 200 94 278 350 357 63 313 335 26 48 3 331 325 339 323 276 267 209 209 140 170 182 185 188 191 201 202 201 202 207 209 214 214 213 212 215 219 223 227 227 227 229 233 233
250 251 238 127 308 97 102 281 87 17 281 44 38 38 10 350 331 322 297 293 280 208 254 257 318 148 247 214 164 173 194 215 220 220 220 210 232 213 224 220 232 205 213 221 230 233 235 236 240
253 265 59 37 17 351 18 292 358 273 204 201 327 345 330 322 324 318 318 317 309 323 321 327 146 220 256 224 150 190 188 200 213 224 224 220 235 243 249 215 200 196 209 225 232 232 234 238 252
288 13 85 121 20 318 338 237 330 297 267 46 329 317 322 310 303 303 305 308 316 328 319 307 315 163 277 296 243 193 221 175 194 208 224 227 231 226 237 239 190 213 205 233 215 223 227 242 247
122 56 335 81 141 250 270 356 287 294 329 353 301 320 306 307 310 312 307 323 311 314 319 310 316 335 277 267 291 244 262 228 181 229 199 228 224 239 245 243 235 231 223 212 231 240 222 224 232
91 109 210 160 209 265 345 264 291 271 141 301 309 308 307 306 315 309 337 319 329 317 311 314 313 309 314 306 272 271 283 276 240 199 254 224 237 258 255 246 258 272 278 250 239 248 253 240 237
73 261 177 196 133 217 275 295 251 262 160 284 300 310 301 315 331 325 339 348 326 333 314 312 314 306 294 283 284 286 253 263 270 238 252 212 252 234 255 251 241 249 269 276 304 276 246 251 253
209 240 183 213 273 289 328 270 222 228 262 291 289 309 305 292 337 0 348 331 340 329 336 326 302 292 289 278 273 258 259 257 235 246 206 216 268 246 247 257 283 264 258 270 279 308 292 267 273
236 241 253 154 150 145 244 293 89 23 270 287 299 295 280 304 349 5 336 350 347 340 333 324 320 312 299 288 281 275 263 252 263 256 245 180 214 257 216 226 240 245 214 266 250 258 277 300 274
190 329 336 319 170 308 263 300 294 281 292 289 303 257 288 315 9 5 344 1 356 353 347 335 328 309 317 298 282 279 257 262 257 262 249 225 197 232 231 239 278 290 250 271 265 269 253 258 266
346 333 322 305 335 332 306 294 304 304 293 291 285 225 285 311 19 359 352 359 359 3 354 346 339 327 316 296 276 263 261 237 247 247 250 234 213 214 214 236 237 266 279 270 253 244 258 254 269
318 304 298 295 343 297 297 296 288 295 291 279 241 323 295 319 339 6 356 5 360 4 357 356 349 339 326 302 289 252 245 233 240 239 234 255 244 245 224 243 213 228 243 227 249 245 252 264 255
294 291 296 327 327 321 303 294 293 275 261 329 347 264 286 326 344 356 348 4 355 6 1 359 354 343 332 312 297 280 291 248 231 230 215 199 217 231 240 239 266 284 284 284 254 248 257 261 249
302 313 336 316 310 287 278 291 295 100 151 171 224 236 263 320 338 335 337 339 344 354 6 9 356 350 343 334 298 267 269 264 265 242 159 215 194 229 226 233 250 267 279 279 286 269 250 264 261
310 15 309 300 300 302 312 292 282 258 187 180 228 232 331 344 341 339 338 340 343 341 359 358 10 358 352 337 328 293 286 261 239 250 236 211 199 198 221 225 233 255 275 304 289 275 285 274 264
300 329 300 286 280 288 284 250 181 237 236 246 210 197 262 353 339 339 336 330 320 332 355 352 1 6 356 350 335 312 280 278 265 263 220 140 214 223 229 229 238 244 263 281 285 287 271 271 261
302 284 289 277 257 249 305 315 290 301 318 325 302 344 352 321 347 328 328 319 329 330 347 1 350 5 360 4 345 331 302 309 307 274 240 226 223 200 222 228 295 285 295 280 285 285 277 273 263
280 315 312 295 303 295 343 322 313 333 356 1 334 317 305 348 336 341 331 332 324 319 356 341 347 357 5 4 350 352 351 330 305 303 277 267 273 241 59 70 44 235 270 283 283 286 283 279 274
298 306 295 299 313 312 306 280 331 198 159 349 297 360 350 338 321 322 344 335 350 353 357 339 347 346 2 7 0 5 356 350 341 354 354 328 357 1 356 2 337 338 326 315 311 294 288 274 280
312 278 7 289 283 277 306 323 327 44 22 332 279 222 234 306 317 341 1 355 359 333 20 353 339 345 5 3 2 8 350 354 1 1 9 1 360 346 351 334 342 341 342 342 326 308 313 304 306
227 301 302 301 296 295 303 312 290 10 329 347 9 10 349 297 357 350 344 341 356 337 87 284 29 354 341 6 7 353 339 328 7 11 6 356 359 356 351 355 7 1 347 350 351 338 339 339 348
299 265 267 285 305 307 306 296 340 323 351 358 344 347 351 317 335 328 296 332 342 319 338 352 354 343 357 345 358 0 351 322 353 0 5 8 14 22 15 3 8 2 353 355 351 352 343 9 28
290 291 298 285 292 296 295 282 290 317 20 0 327 283 316 286 346 339 320 356 358 338 342 345 343 339 339 332 339 340 359 316 348 350 12 8 9 15 13 13 10 10 7 10 18 36 47 55 58